Regional Weather Roundup
Issued by NWS

Home | Current Version | Previous Version | Text Only | Print | Product List | Glossary Off
Versions: 1 2 3 4 5 6 7 8 9 10 11 12 13 14 15 16 17 18 19 20 21 22 23 24 25 26 27 28 29 30 31 32 33 34 35 36 37 38 39 40 41 42 43 44 45 46 47 48 49 50

779
ASUS43 KTOP 110908
RWRKS

WEATHER ROUNDUP FOR KANSAS
NATIONAL WEATHER SERVICE GOODLAND KS
300 AM CST THU FEB 11 2016

NOTE:  "FAIR" INDICATES FEW OR NO CLOUDS BELOW 12,000 FEET WITH NO
SIGNIFICANT WEATHER AND/OR OBSTRUCTIONS TO VISIBILITY.

KSZ001>006-013>018-027>032-041>047-111000-
NORTHWEST KANSAS

CITY           SKY/WX    TMP DP  RH WIND       PRES   REMARKS
GOODLAND       CLOUDY    29  23  78 W3        30.16R
HAYS           CLEAR     34  21  60 NE9       30.15R
HILL CITY      CLEAR     31  27  85 N9        30.17R
RUSSELL        CLEAR     32  28  85 N13       30.13R WCI  22
$$

KSZ061>065-074>080-084>089-111000-
SOUTHWEST KANSAS

CITY           SKY/WX    TMP DP  RH WIND       PRES   REMARKS
DODGE CITY     CLOUDY    34  27  75 N15       30.11R WCI  24
ELKHART          N/A     39  17  41 NW7         N/A
GARDEN CITY    CLEAR     34  27  75 N15       30.13R WCI  24
GREAT BEND     CLEAR     36  25  64 N14       30.13R WCI  27
LIBERAL        CLOUDY    34  19  55 NW10      30.14R WCI  26
PRATT          PTCLDY    32  27  81 N8        30.10R
$$

KSZ066>073-081>083-090>101-111000-
SOUTHEAST KANSAS

CITY           SKY/WX    TMP DP  RH WIND       PRES   REMARKS
CHANUTE        CLOUDY    33  24  69 N12       30.06R WCI  24
COFFEYVILLE    CLOUDY    33  25  72 N3        30.03R
HUTCHINSON     CLOUDY    37  29  72 N15       30.09R WCI  28
MEDICINE LODGE   N/A     41  30  65 N6        30.09R
NEWTON         CLOUDY    34  25  69 N12       30.09R WCI  25
PARSONS        CLOUDY    33  25  72 N9        30.04R
WICHITA INTL   CLOUDY    40  30  67 N10       30.06R WCI  33
WICHITA JABRA  CLOUDY    35  30  82 N15       30.06R WCI  25
WICHITA MCCONL CLOUDY    40  30  67 NE14      30.05R WCI  32
WINFIELD       CLOUDY    34  28  79 N8        30.06R
$$

KSZ007>012-019>026-033>040-048>060-102>105-111000-
NORTHEAST KANSAS

CITY           SKY/WX    TMP DP  RH WIND       PRES   REMARKS
CONCORDIA      MOCLDY    27  23  85 N13       30.17R WCI  16
EMPORIA        CLOUDY    29  22  75 N9        30.10R
LAWRENCE       CLEAR     24  20  84 NE8       30.15R
MANHATTAN      CLEAR     27  23  85 NE12      30.15R WCI  17
MARYSVILLE     CLOUDY    27  25  93 NE8       30.17S
OLATHE IND     CLEAR     24  20  84 NE8       30.13R
OLATHE EXE     CLEAR     24  19  81 NE9       30.12R
SALINA         CLEAR     32  25  75 N8        30.14R
TOPEKA BILLARD CLEAR     26  20  77 NE8       30.15R
TOPEKA FORBES  CLEAR     26  21  81 NE8       30.13R
$$




USA.gov is the U.S. government's official web portal to all federal, state and local government web resources and services.